Year,Month,Day,Hour,Minute,Value (Times are PST for temperature in C)
2017,05,23,00,00,21.10
2017,05,23,00,01,21.10
2017,05,23,00,02,21.10
2017,05,23,00,03,21.10
2017,05,23,00,04,21.10
2017,05,23,00,05,21.10
2017,05,23,00,06,21.10
2017,05,23,00,07,21.00
2017,05,23,00,08,20.90
2017,05,23,00,09,20.90
2017,05,23,00,10,20.80
2017,05,23,00,11,20.80
2017,05,23,00,12,20.80
2017,05,23,00,13,20.70
2017,05,23,00,14,20.70
2017,05,23,00,15,20.60
2017,05,23,00,16,20.50
2017,05,23,00,17,20.40
2017,05,23,00,18,20.30
2017,05,23,00,19,20.30
2017,05,23,00,20,20.20
2017,05,23,00,21,20.20
2017,05,23,00,22,20.20
2017,05,23,00,23,20.10
2017,05,23,00,24,20.10
2017,05,23,00,25,20.00
2017,05,23,00,26,20.00
2017,05,23,00,27,19.90
2017,05,23,00,28,19.90
2017,05,23,00,29,19.90
2017,05,23,00,30,19.90
2017,05,23,00,31,19.90
2017,05,23,00,32,19.90
2017,05,23,00,33,20.00
2017,05,23,00,34,19.90
2017,05,23,00,35,19.80
2017,05,23,00,36,19.80
2017,05,23,00,37,19.70
2017,05,23,00,38,19.70
2017,05,23,00,39,19.60
2017,05,23,00,40,19.50
2017,05,23,00,41,19.50
2017,05,23,00,42,19.40
2017,05,23,00,43,19.30
2017,05,23,00,44,19.30
2017,05,23,00,45,19.20
2017,05,23,00,46,19.20
2017,05,23,00,47,19.10
2017,05,23,00,48,19.00
2017,05,23,00,49,18.90
2017,05,23,00,50,18.90
2017,05,23,00,51,18.80
2017,05,23,00,52,18.80
2017,05,23,00,53,18.70
2017,05,23,00,54,18.70
2017,05,23,00,55,18.60
2017,05,23,00,56,18.60
2017,05,23,00,57,18.60
2017,05,23,00,58,18.50
2017,05,23,00,59,18.40
2017,05,23,01,00,18.40
2017,05,23,01,01,18.40
2017,05,23,01,02,18.30
2017,05,23,01,03,18.30
2017,05,23,01,04,18.20
2017,05,23,01,05,18.20
2017,05,23,01,06,18.10
2017,05,23,01,07,18.10
2017,05,23,01,08,18.00
2017,05,23,01,09,18.00
2017,05,23,01,10,18.00
2017,05,23,01,11,18.00
2017,05,23,01,12,18.00
2017,05,23,01,13,18.00
2017,05,23,01,14,18.00
2017,05,23,01,15,18.00
2017,05,23,01,16,18.00
2017,05,23,01,17,18.10
2017,05,23,01,18,18.10
2017,05,23,01,19,18.20
2017,05,23,01,20,18.20
2017,05,23,01,21,18.20
2017,05,23,01,22,18.30
2017,05,23,01,23,18.30
2017,05,23,01,24,18.40
2017,05,23,01,25,18.40
2017,05,23,01,26,18.50
2017,05,23,01,27,18.50
2017,05,23,01,28,18.60
2017,05,23,01,29,18.60
2017,05,23,01,30,18.60
2017,05,23,01,31,18.50
2017,05,23,01,32,18.50
2017,05,23,01,33,18.50
2017,05,23,01,34,18.40
2017,05,23,01,35,18.40
2017,05,23,01,36,18.40
2017,05,23,01,37,18.30
2017,05,23,01,38,18.30
2017,05,23,01,39,18.30
2017,05,23,01,40,18.30
2017,05,23,01,41,18.30
2017,05,23,01,42,18.30
2017,05,23,01,43,18.30
2017,05,23,01,44,18.20
2017,05,23,01,45,18.20
2017,05,23,01,46,18.20
2017,05,23,01,47,18.20
2017,05,23,01,48,18.20
2017,05,23,01,49,18.20
2017,05,23,01,50,18.20
2017,05,23,01,51,18.20
2017,05,23,01,52,18.20
2017,05,23,01,53,18.20
2017,05,23,01,54,18.20
2017,05,23,01,55,18.30
2017,05,23,01,56,18.30
2017,05,23,01,57,18.30
2017,05,23,01,58,18.30
2017,05,23,01,59,18.30
2017,05,23,02,00,18.30
2017,05,23,02,01,18.30
2017,05,23,02,02,18.30
2017,05,23,02,03,18.30
2017,05,23,02,04,18.30
2017,05,23,02,05,18.30
2017,05,23,02,06,18.40
2017,05,23,02,07,18.40
2017,05,23,02,08,18.40
2017,05,23,02,09,18.40
2017,05,23,02,10,18.40
2017,05,23,02,11,18.40
2017,05,23,02,12,18.40
2017,05,23,02,13,18.40
2017,05,23,02,14,18.40
2017,05,23,02,15,18.40
2017,05,23,02,16,18.40
2017,05,23,02,17,18.40
2017,05,23,02,18,18.40
2017,05,23,02,19,18.40
2017,05,23,02,20,18.40
2017,05,23,02,21,18.30
2017,05,23,02,22,18.20
2017,05,23,02,23,18.20
2017,05,23,02,24,18.10
2017,05,23,02,25,18.10
2017,05,23,02,26,18.00
2017,05,23,02,27,18.00
2017,05,23,02,28,18.00
2017,05,23,02,29,18.00
2017,05,23,02,30,18.00
2017,05,23,02,31,18.10
2017,05,23,02,32,18.20
2017,05,23,02,33,18.30
2017,05,23,02,34,18.40
2017,05,23,02,35,18.50
2017,05,23,02,36,18.60
2017,05,23,02,37,18.60
2017,05,23,02,38,18.60
2017,05,23,02,39,18.60
2017,05,23,02,40,18.60
2017,05,23,02,41,18.60
2017,05,23,02,42,18.60
2017,05,23,02,43,18.50
2017,05,23,02,44,18.50
2017,05,23,02,45,18.40
2017,05,23,02,46,18.40
2017,05,23,02,47,18.30
2017,05,23,02,48,18.30
2017,05,23,02,49,18.30
2017,05,23,02,50,18.20
2017,05,23,02,51,18.10
2017,05,23,02,52,18.00
2017,05,23,02,53,18.00
2017,05,23,02,54,17.90
2017,05,23,02,55,17.90
2017,05,23,02,56,17.80
2017,05,23,02,57,17.80
2017,05,23,02,58,17.70
2017,05,23,02,59,17.70
2017,05,23,03,00,17.70
2017,05,23,03,01,17.60
2017,05,23,03,02,17.60
2017,05,23,03,03,17.60
2017,05,23,03,04,17.60
2017,05,23,03,05,17.50
2017,05,23,03,06,17.50
2017,05,23,03,07,17.40
2017,05,23,03,08,17.40
2017,05,23,03,09,17.30
2017,05,23,03,10,17.30
2017,05,23,03,11,17.30
2017,05,23,03,12,17.20
2017,05,23,03,13,17.20
2017,05,23,03,14,17.20
2017,05,23,03,15,17.20
2017,05,23,03,16,17.20
2017,05,23,03,17,17.20
2017,05,23,03,18,17.30
2017,05,23,03,19,17.30
2017,05,23,03,20,17.40
2017,05,23,03,21,17.40
2017,05,23,03,22,17.50
2017,05,23,03,23,17.50
2017,05,23,03,24,17.50
2017,05,23,03,25,17.60
2017,05,23,03,26,17.60
2017,05,23,03,27,17.50
2017,05,23,03,28,17.50
2017,05,23,03,29,17.50
2017,05,23,03,30,17.40
2017,05,23,03,31,17.40
2017,05,23,03,32,17.40
2017,05,23,03,33,17.40
2017,05,23,03,34,17.40
2017,05,23,03,35,17.40
2017,05,23,03,36,17.40
2017,05,23,03,37,17.30
2017,05,23,03,38,17.30
2017,05,23,03,39,17.30
2017,05,23,03,40,17.30
2017,05,23,03,41,17.30
2017,05,23,03,42,17.20
2017,05,23,03,43,17.20
2017,05,23,03,44,17.20
2017,05,23,03,45,17.20
2017,05,23,03,46,17.20
2017,05,23,03,47,17.20
2017,05,23,03,48,17.10
2017,05,23,03,49,17.10
2017,05,23,03,50,17.10
2017,05,23,03,51,17.10
2017,05,23,03,52,17.10
2017,05,23,03,53,17.00
2017,05,23,03,54,17.00
2017,05,23,03,55,17.00
2017,05,23,03,56,16.90
2017,05,23,03,57,16.90
2017,05,23,03,58,16.90
2017,05,23,03,59,16.90
2017,05,23,04,00,16.80
2017,05,23,04,01,16.80
2017,05,23,04,02,16.80
2017,05,23,04,03,16.80
2017,05,23,04,04,16.70
2017,05,23,04,05,16.70
2017,05,23,04,06,16.70
2017,05,23,04,07,16.70
2017,05,23,04,08,16.70
2017,05,23,04,09,16.70
2017,05,23,04,10,16.70
2017,05,23,04,11,16.70
2017,05,23,04,12,16.70
2017,05,23,04,13,16.70
2017,05,23,04,14,16.70
2017,05,23,04,15,16.70
2017,05,23,04,16,16.70
2017,05,23,04,17,16.70
2017,05,23,04,18,16.70
2017,05,23,04,19,16.70
2017,05,23,04,20,16.60
2017,05,23,04,21,16.60
2017,05,23,04,22,16.60
2017,05,23,04,23,16.60
2017,05,23,04,24,16.60
2017,05,23,04,25,16.50
2017,05,23,04,26,16.50
2017,05,23,04,27,16.50
2017,05,23,04,28,16.40
2017,05,23,04,29,16.40
2017,05,23,04,30,16.40
2017,05,23,04,31,16.30
2017,05,23,04,32,16.30
2017,05,23,04,33,16.30
2017,05,23,04,34,16.20
2017,05,23,04,35,16.20
2017,05,23,04,36,16.20
2017,05,23,04,37,16.10
2017,05,23,04,38,16.10
2017,05,23,04,39,16.10
2017,05,23,04,40,16.10
2017,05,23,04,41,16.10
2017,05,23,04,42,16.10
2017,05,23,04,43,16.10
2017,05,23,04,44,16.10
2017,05,23,04,45,16.10
2017,05,23,04,46,16.10
2017,05,23,04,47,16.10
2017,05,23,04,48,16.20
2017,05,23,04,49,16.20
2017,05,23,04,50,16.30
2017,05,23,04,51,16.30
2017,05,23,04,52,16.40
2017,05,23,04,53,16.40
2017,05,23,04,54,16.40
2017,05,23,04,55,16.50
2017,05,23,04,56,16.50
2017,05,23,04,57,16.50
2017,05,23,04,58,16.50
2017,05,23,04,59,16.50
2017,05,23,05,00,16.50
2017,05,23,05,01,16.50
2017,05,23,05,02,16.50
2017,05,23,05,03,16.50
2017,05,23,05,04,16.50
2017,05,23,05,05,16.50
2017,05,23,05,06,16.50
2017,05,23,05,07,16.50
2017,05,23,05,08,16.50
2017,05,23,05,09,16.50
2017,05,23,05,10,16.40
2017,05,23,05,11,16.40
2017,05,23,05,12,16.40
2017,05,23,05,13,16.40
2017,05,23,05,14,16.30
2017,05,23,05,15,16.30
2017,05,23,05,16,16.30
2017,05,23,05,17,16.20
2017,05,23,05,18,16.20
2017,05,23,05,19,16.20
2017,05,23,05,20,16.20
2017,05,23,05,21,16.10
2017,05,23,05,22,16.10
2017,05,23,05,23,16.10
2017,05,23,05,24,16.10
2017,05,23,05,25,16.10
2017,05,23,05,26,16.10
2017,05,23,05,27,16.10
2017,05,23,05,28,16.10
2017,05,23,05,29,16.10
2017,05,23,05,30,16.10
2017,05,23,05,31,16.10
2017,05,23,05,32,16.10
2017,05,23,05,33,16.10
2017,05,23,05,34,16.20
2017,05,23,05,35,16.20
2017,05,23,05,36,16.20
2017,05,23,05,37,16.20
2017,05,23,05,38,16.30
2017,05,23,05,39,16.30
2017,05,23,05,40,16.30
2017,05,23,05,41,16.40
2017,05,23,05,42,16.40
2017,05,23,05,43,16.40
2017,05,23,05,44,16.40
2017,05,23,05,45,16.40
2017,05,23,05,46,16.40
2017,05,23,05,47,16.40
2017,05,23,05,48,16.40
2017,05,23,05,49,16.40
2017,05,23,05,50,16.30
2017,05,23,05,51,16.30
2017,05,23,05,52,16.30
2017,05,23,05,53,16.30
2017,05,23,05,54,16.30
2017,05,23,05,55,16.30
2017,05,23,05,56,16.30
2017,05,23,05,57,16.30
2017,05,23,05,58,16.30
2017,05,23,05,59,16.30
2017,05,23,06,00,16.20
2017,05,23,06,01,16.20
2017,05,23,06,02,16.20
2017,05,23,06,03,16.20
2017,05,23,06,04,16.20
2017,05,23,06,05,16.30
2017,05,23,06,06,16.30
2017,05,23,06,07,16.30
2017,05,23,06,08,16.30
2017,05,23,06,09,16.30
2017,05,23,06,10,16.30
2017,05,23,06,11,16.30
2017,05,23,06,12,16.30
2017,05,23,06,13,16.30
2017,05,23,06,14,16.30
2017,05,23,06,15,16.40
2017,05,23,06,16,16.40
2017,05,23,06,17,16.40
2017,05,23,06,18,16.40
2017,05,23,06,19,16.40
2017,05,23,06,20,16.40
2017,05,23,06,21,16.50
2017,05,23,06,22,16.50
2017,05,23,06,23,16.50
2017,05,23,06,24,16.50
2017,05,23,06,25,16.60
2017,05,23,06,26,16.60
2017,05,23,06,27,16.60
2017,05,23,06,28,16.60
2017,05,23,06,29,16.60
2017,05,23,06,30,16.60
2017,05,23,06,31,16.60
2017,05,23,06,32,16.70
2017,05,23,06,33,16.70
2017,05,23,06,34,16.70
2017,05,23,06,35,16.70
2017,05,23,06,36,16.80
2017,05,23,06,37,16.80
2017,05,23,06,38,16.80
2017,05,23,06,39,16.90
2017,05,23,06,40,16.90
2017,05,23,06,41,16.90
2017,05,23,06,42,16.90
2017,05,23,06,43,17.00
2017,05,23,06,44,17.00
2017,05,23,06,45,17.00
2017,05,23,06,46,17.00
2017,05,23,06,47,17.00
2017,05,23,06,48,17.00
2017,05,23,06,49,17.00
2017,05,23,06,50,17.10
2017,05,23,06,51,17.10
2017,05,23,06,52,17.10
2017,05,23,06,53,17.10
2017,05,23,06,54,17.10
2017,05,23,06,55,17.10
2017,05,23,06,56,17.10
2017,05,23,06,57,17.10
2017,05,23,06,58,17.10
2017,05,23,06,59,17.10
2017,05,23,07,00,17.10
2017,05,23,07,01,17.00
2017,05,23,07,02,17.00
2017,05,23,07,03,17.00
2017,05,23,07,04,17.00
2017,05,23,07,05,17.00
2017,05,23,07,06,17.00
2017,05,23,07,07,16.90
2017,05,23,07,08,16.90
2017,05,23,07,09,16.90
2017,05,23,07,10,16.90
2017,05,23,07,11,16.90
2017,05,23,07,12,17.00
2017,05,23,07,13,17.00
2017,05,23,07,14,17.10
2017,05,23,07,15,17.20
2017,05,23,07,16,17.30
2017,05,23,07,17,17.40
2017,05,23,07,18,17.60
2017,05,23,07,19,17.70
2017,05,23,07,20,17.80
2017,05,23,07,21,17.90
2017,05,23,07,22,17.90
2017,05,23,07,23,18.00
2017,05,23,07,24,18.10
2017,05,23,07,25,18.10
2017,05,23,07,26,18.20
2017,05,23,07,27,18.30
2017,05,23,07,28,18.40
2017,05,23,07,29,18.40
2017,05,23,07,30,18.40
2017,05,23,07,31,18.40
2017,05,23,07,32,18.40
2017,05,23,07,33,18.40
2017,05,23,07,34,18.30
2017,05,23,07,35,18.20
2017,05,23,07,36,18.10
2017,05,23,07,37,18.00
2017,05,23,07,38,17.90
2017,05,23,07,39,18.00
2017,05,23,07,40,18.10
2017,05,23,07,41,18.00
2017,05,23,07,42,18.00
2017,05,23,07,43,17.90
2017,05,23,07,44,17.80
2017,05,23,07,45,17.70
2017,05,23,07,46,17.60
2017,05,23,07,47,17.50
2017,05,23,07,48,17.40
2017,05,23,07,49,17.30
2017,05,23,07,50,17.20
2017,05,23,07,51,17.10
2017,05,23,07,52,17.00
2017,05,23,07,53,16.90
2017,05,23,07,54,16.80
2017,05,23,07,55,16.80
2017,05,23,07,56,16.80
2017,05,23,07,57,16.80
2017,05,23,07,58,16.80
2017,05,23,07,59,16.80
2017,05,23,08,00,16.80
2017,05,23,08,01,16.80
2017,05,23,08,02,16.80
2017,05,23,08,03,16.80
2017,05,23,08,04,16.80
2017,05,23,08,05,16.80
2017,05,23,08,06,16.80
2017,05,23,08,07,16.70
2017,05,23,08,08,16.70
2017,05,23,08,09,16.80
2017,05,23,08,10,16.80
2017,05,23,08,11,16.80
2017,05,23,08,12,16.80
2017,05,23,08,13,16.80
2017,05,23,08,14,16.80
2017,05,23,08,15,16.80
2017,05,23,08,16,16.80
2017,05,23,08,17,16.80
2017,05,23,08,18,16.80
2017,05,23,08,19,16.80
2017,05,23,08,20,16.90
2017,05,23,08,21,17.00
2017,05,23,08,22,17.00
2017,05,23,08,23,17.10
2017,05,23,08,24,17.20
2017,05,23,08,25,17.20
2017,05,23,08,26,17.30
2017,05,23,08,27,17.50
2017,05,23,08,28,17.60
2017,05,23,08,29,17.60
2017,05,23,08,30,17.60
2017,05,23,08,31,17.60
2017,05,23,08,32,17.70
2017,05,23,08,33,17.70
2017,05,23,08,34,17.60
2017,05,23,08,35,17.60
2017,05,23,08,36,17.50
2017,05,23,08,37,17.50
2017,05,23,08,38,17.50
2017,05,23,08,39,17.50
2017,05,23,08,40,17.40
2017,05,23,08,41,17.40
2017,05,23,08,42,17.40
2017,05,23,08,43,17.30
2017,05,23,08,44,17.20
2017,05,23,08,45,17.20
2017,05,23,08,46,17.10
2017,05,23,08,47,17.10
2017,05,23,08,48,17.20
2017,05,23,08,49,17.20
2017,05,23,08,50,17.20
2017,05,23,08,51,17.10
2017,05,23,08,52,17.00
2017,05,23,08,53,16.90
2017,05,23,08,54,16.90
2017,05,23,08,55,16.90
2017,05,23,08,56,17.00
2017,05,23,08,57,17.00
2017,05,23,08,58,17.10
2017,05,23,08,59,17.10
2017,05,23,09,00,17.10
2017,05,23,09,01,17.10
2017,05,23,09,02,17.00
2017,05,23,09,03,17.00
2017,05,23,09,04,17.00
2017,05,23,09,05,17.00
2017,05,23,09,06,17.10
2017,05,23,09,07,17.10
2017,05,23,09,08,17.10
2017,05,23,09,09,17.10
2017,05,23,09,10,17.10
2017,05,23,09,11,17.10
2017,05,23,09,12,17.10
2017,05,23,09,13,17.00
2017,05,23,09,14,17.00
2017,05,23,09,15,17.00
2017,05,23,09,16,17.00
2017,05,23,09,17,17.10
2017,05,23,09,18,17.10
2017,05,23,09,19,17.10
2017,05,23,09,20,17.20
2017,05,23,09,21,17.20
2017,05,23,09,22,17.20
2017,05,23,09,23,17.20
2017,05,23,09,24,17.30
2017,05,23,09,25,17.30
2017,05,23,09,26,17.30
2017,05,23,09,27,17.30
2017,05,23,09,28,17.30
2017,05,23,09,29,17.30
2017,05,23,09,30,17.30
2017,05,23,09,31,17.30
2017,05,23,09,32,17.30
2017,05,23,09,33,17.30
2017,05,23,09,34,17.30
2017,05,23,09,35,17.30
2017,05,23,09,36,17.30
2017,05,23,09,37,17.30
2017,05,23,09,38,17.30
2017,05,23,09,39,17.30
2017,05,23,09,40,17.20
2017,05,23,09,41,17.20
2017,05,23,09,42,17.20
2017,05,23,09,43,17.30
2017,05,23,09,44,17.30
2017,05,23,09,45,17.30
2017,05,23,09,46,17.30
2017,05,23,09,47,17.20
2017,05,23,09,48,17.20
2017,05,23,09,49,17.10
2017,05,23,09,50,17.10
2017,05,23,09,51,17.10
2017,05,23,09,52,17.10
2017,05,23,09,53,17.10
2017,05,23,09,54,17.10
2017,05,23,09,55,17.10
2017,05,23,09,56,17.00
2017,05,23,09,57,17.00
2017,05,23,09,58,17.00
2017,05,23,09,59,17.00
2017,05,23,10,00,17.00
2017,05,23,10,01,16.90
2017,05,23,10,02,17.00
2017,05,23,10,03,17.00
2017,05,23,10,04,17.20
2017,05,23,10,05,17.30
2017,05,23,10,06,17.40
2017,05,23,10,07,17.40
2017,05,23,10,08,17.50
2017,05,23,10,09,17.50
2017,05,23,10,10,17.40
2017,05,23,10,11,17.40
2017,05,23,10,12,17.40
2017,05,23,10,13,17.40
2017,05,23,10,14,17.40
2017,05,23,10,15,17.40
2017,05,23,10,16,17.40
2017,05,23,10,17,17.40
2017,05,23,10,18,17.40
2017,05,23,10,19,17.40
2017,05,23,10,20,17.40
2017,05,23,10,21,17.40
2017,05,23,10,22,17.50
2017,05,23,10,23,17.50
2017,05,23,10,24,17.60
2017,05,23,10,25,17.70
2017,05,23,10,26,17.70
2017,05,23,10,27,17.70
2017,05,23,10,28,17.70
2017,05,23,10,29,17.50
2017,05,23,10,30,17.30
2017,05,23,10,31,17.20
2017,05,23,10,32,17.10
2017,05,23,10,33,17.10
2017,05,23,10,34,17.10
2017,05,23,10,35,17.10
2017,05,23,10,36,17.10
2017,05,23,10,37,17.20
2017,05,23,10,38,17.20
2017,05,23,10,39,17.30
2017,05,23,10,40,17.30
2017,05,23,10,41,17.40
2017,05,23,10,42,17.40
2017,05,23,10,43,17.50
2017,05,23,10,44,17.50
2017,05,23,10,45,17.70
2017,05,23,10,46,17.80
2017,05,23,10,47,17.80
2017,05,23,10,48,17.90
2017,05,23,10,49,18.00
2017,05,23,10,50,18.10
2017,05,23,10,51,18.10
2017,05,23,10,52,18.10
2017,05,23,10,53,18.20
2017,05,23,10,54,18.20
2017,05,23,10,55,18.10
2017,05,23,10,56,18.10
2017,05,23,10,57,18.20
2017,05,23,10,58,18.20
2017,05,23,10,59,18.30
2017,05,23,11,00,18.30
2017,05,23,11,01,18.30
2017,05,23,11,02,18.30
2017,05,23,11,03,18.40
2017,05,23,11,04,18.50
2017,05,23,11,05,18.60
2017,05,23,11,06,18.70
2017,05,23,11,07,18.70
2017,05,23,11,08,18.70
2017,05,23,11,09,18.50
2017,05,23,11,10,18.40
2017,05,23,11,11,18.20
2017,05,23,11,12,18.10
2017,05,23,11,13,18.10
2017,05,23,11,14,18.00
2017,05,23,11,15,17.90
2017,05,23,11,16,17.70
2017,05,23,11,17,17.60
2017,05,23,11,18,17.60
2017,05,23,11,19,17.50
2017,05,23,11,20,17.50
2017,05,23,11,21,17.40
2017,05,23,11,22,17.50
2017,05,23,11,23,17.50
2017,05,23,11,24,17.60
2017,05,23,11,25,17.60
2017,05,23,11,26,17.70
2017,05,23,11,27,17.70
2017,05,23,11,28,17.80
2017,05,23,11,29,17.90
2017,05,23,11,30,18.00
2017,05,23,11,31,18.20
2017,05,23,11,32,18.30
2017,05,23,11,33,18.40
2017,05,23,11,34,18.40
2017,05,23,11,35,18.40
2017,05,23,11,36,18.30
2017,05,23,11,37,18.30
2017,05,23,11,38,18.30
2017,05,23,11,39,18.30
2017,05,23,11,40,18.30
2017,05,23,11,41,18.30
2017,05,23,11,42,18.40
2017,05,23,11,43,18.40
2017,05,23,11,44,18.50
2017,05,23,11,45,18.60
2017,05,23,11,46,18.60
2017,05,23,11,47,18.60
2017,05,23,11,48,18.60
2017,05,23,11,49,18.60
2017,05,23,11,50,18.60
2017,05,23,11,51,18.60
2017,05,23,11,52,18.70
2017,05,23,11,53,18.60
2017,05,23,11,54,18.60
2017,05,23,11,55,18.60
2017,05,23,11,56,18.60
2017,05,23,11,57,18.50
2017,05,23,11,58,18.40
2017,05,23,11,59,18.30
2017,05,23,12,00,18.20
2017,05,23,12,01,18.10
2017,05,23,12,02,18.10
2017,05,23,12,03,18.10
2017,05,23,12,04,18.20
2017,05,23,12,05,18.20
2017,05,23,12,06,18.30
2017,05,23,12,07,18.30
2017,05,23,12,08,18.30
2017,05,23,12,09,18.30
2017,05,23,12,10,18.30
2017,05,23,12,11,18.30
2017,05,23,12,12,18.40
2017,05,23,12,13,18.40
2017,05,23,12,14,18.40
2017,05,23,12,15,18.40
2017,05,23,12,16,18.40
2017,05,23,12,17,18.50
2017,05,23,12,18,18.60
2017,05,23,12,19,18.60
2017,05,23,12,20,18.70
2017,05,23,12,21,18.70
2017,05,23,12,22,18.80
2017,05,23,12,23,18.80
2017,05,23,12,24,18.80
2017,05,23,12,25,18.90
2017,05,23,12,26,18.90
2017,05,23,12,27,19.00
2017,05,23,12,28,19.00
2017,05,23,12,29,18.90
2017,05,23,12,30,18.80
2017,05,23,12,31,18.60
2017,05,23,12,32,18.50
2017,05,23,12,33,18.40
2017,05,23,12,34,18.30
2017,05,23,12,35,18.20
2017,05,23,12,36,18.20
2017,05,23,12,37,18.20
2017,05,23,12,38,18.10
2017,05,23,12,39,18.00
2017,05,23,12,40,17.90
2017,05,23,12,41,17.90
2017,05,23,12,42,17.90
2017,05,23,12,43,18.00
2017,05,23,12,44,18.00
2017,05,23,12,45,18.10
2017,05,23,12,46,18.10
2017,05,23,12,47,18.10
2017,05,23,12,48,18.00
2017,05,23,12,49,18.00
2017,05,23,12,50,17.90
2017,05,23,12,51,17.90
2017,05,23,12,52,17.90
2017,05,23,12,53,18.00
2017,05,23,12,54,18.00
2017,05,23,12,55,18.10
2017,05,23,12,56,18.10
2017,05,23,12,57,18.20
2017,05,23,12,58,18.20
2017,05,23,12,59,18.10
2017,05,23,13,00,17.90
2017,05,23,13,01,17.90
2017,05,23,13,02,17.90
2017,05,23,13,03,17.90
2017,05,23,13,04,17.90
2017,05,23,13,05,17.90
2017,05,23,13,06,18.00
2017,05,23,13,07,18.00
2017,05,23,13,08,18.00
2017,05,23,13,09,18.00
2017,05,23,13,10,18.00
2017,05,23,13,11,18.00
2017,05,23,13,12,18.00
2017,05,23,13,13,18.00
2017,05,23,13,14,18.00
2017,05,23,13,15,18.10
2017,05,23,13,16,18.10
2017,05,23,13,17,18.10
2017,05,23,13,18,18.10
2017,05,23,13,19,17.90
2017,05,23,13,20,17.80
2017,05,23,13,21,17.80
2017,05,23,13,22,17.80
2017,05,23,13,23,17.80
2017,05,23,13,24,17.90
2017,05,23,13,25,17.80
2017,05,23,13,26,17.90
2017,05,23,13,27,17.90
2017,05,23,13,28,18.00
2017,05,23,13,29,18.00
2017,05,23,13,30,18.10
2017,05,23,13,31,18.20
2017,05,23,13,32,18.30
2017,05,23,13,33,18.20
2017,05,23,13,34,18.20
2017,05,23,13,35,18.20
2017,05,23,13,36,18.20
2017,05,23,13,37,18.30
2017,05,23,13,38,18.40
2017,05,23,13,39,18.50
2017,05,23,13,40,18.60
2017,05,23,13,41,18.70
2017,05,23,13,42,18.70
2017,05,23,13,43,18.60
2017,05,23,13,44,18.60
2017,05,23,13,45,18.60
2017,05,23,13,46,18.60
2017,05,23,13,47,18.60
2017,05,23,13,48,18.70
2017,05,23,13,49,18.70
2017,05,23,13,50,18.80
2017,05,23,13,51,18.90
2017,05,23,13,52,18.90
2017,05,23,13,53,18.80
2017,05,23,13,54,18.80
2017,05,23,13,55,18.80
2017,05,23,13,56,19.00
2017,05,23,13,57,19.10
2017,05,23,13,58,19.20
2017,05,23,13,59,19.30
2017,05,23,14,00,19.50
2017,05,23,14,01,19.60
2017,05,23,14,02,19.60
2017,05,23,14,03,19.70
2017,05,23,14,04,19.70
2017,05,23,14,05,19.70
2017,05,23,14,06,19.70
2017,05,23,14,07,19.60
2017,05,23,14,08,19.50
2017,05,23,14,09,19.30
2017,05,23,14,10,19.30
2017,05,23,14,11,19.20
2017,05,23,14,12,19.10
2017,05,23,14,13,19.00
2017,05,23,14,14,19.00
2017,05,23,14,15,18.90
2017,05,23,14,16,18.90
2017,05,23,14,17,18.90
2017,05,23,14,18,19.00
2017,05,23,14,19,19.00
2017,05,23,14,20,19.00
2017,05,23,14,21,19.00
2017,05,23,14,22,19.10
2017,05,23,14,23,19.10
2017,05,23,14,24,19.20
2017,05,23,14,25,19.30
2017,05,23,14,26,19.30
2017,05,23,14,27,19.30
2017,05,23,14,28,19.40
2017,05,23,14,29,19.30
2017,05,23,14,30,19.30
2017,05,23,14,31,19.30
2017,05,23,14,32,19.30
2017,05,23,14,33,19.30
2017,05,23,14,34,19.30
2017,05,23,14,35,19.30
2017,05,23,14,36,19.40
2017,05,23,14,37,19.40
2017,05,23,14,38,19.50
2017,05,23,14,39,19.50
2017,05,23,14,40,19.60
2017,05,23,14,41,19.60
2017,05,23,14,42,19.60
2017,05,23,14,43,19.70
2017,05,23,14,44,19.70
2017,05,23,14,45,19.80
2017,05,23,14,46,19.90
2017,05,23,14,47,20.00
2017,05,23,14,48,20.20
2017,05,23,14,49,20.40
2017,05,23,14,50,20.70
2017,05,23,14,51,21.00
2017,05,23,14,52,21.30
2017,05,23,14,53,21.60
2017,05,23,14,54,21.80
2017,05,23,14,55,21.80
2017,05,23,14,56,22.00
2017,05,23,14,57,22.10
2017,05,23,14,58,22.00
2017,05,23,14,59,22.00
2017,05,23,15,00,22.00
2017,05,23,15,01,22.10
2017,05,23,15,02,22.20
2017,05,23,15,03,22.20
2017,05,23,15,04,22.30
2017,05,23,15,05,22.60
2017,05,23,15,06,22.90
2017,05,23,15,07,23.00
2017,05,23,15,08,23.10
2017,05,23,15,09,23.10
2017,05,23,15,10,23.20
2017,05,23,15,11,23.40
2017,05,23,15,12,23.50
2017,05,23,15,13,23.60
2017,05,23,15,14,23.70
2017,05,23,15,15,23.80
2017,05,23,15,16,23.80
2017,05,23,15,17,23.80
2017,05,23,15,18,23.70
2017,05,23,15,19,23.50
2017,05,23,15,20,23.30
2017,05,23,15,21,23.20
2017,05,23,15,22,23.10
2017,05,23,15,23,23.00
2017,05,23,15,24,22.90
2017,05,23,15,25,22.80
2017,05,23,15,26,22.60
2017,05,23,15,27,22.50
2017,05,23,15,28,22.40
2017,05,23,15,29,22.40
2017,05,23,15,30,22.30
2017,05,23,15,31,22.30
2017,05,23,15,32,22.20
2017,05,23,15,33,22.20
2017,05,23,15,34,22.20
2017,05,23,15,35,22.20
2017,05,23,15,36,22.30
2017,05,23,15,37,22.40
2017,05,23,15,38,22.50
2017,05,23,15,39,22.60
2017,05,23,15,40,22.60
2017,05,23,15,41,22.40
2017,05,23,15,42,22.20
2017,05,23,15,43,22.10
2017,05,23,15,44,22.00
2017,05,23,15,45,21.90
2017,05,23,15,46,22.00
2017,05,23,15,47,22.00
2017,05,23,15,48,22.10
2017,05,23,15,49,22.20
2017,05,23,15,50,22.20
2017,05,23,15,51,22.20
2017,05,23,15,52,22.20
2017,05,23,15,53,22.20
2017,05,23,15,54,22.30
2017,05,23,15,55,22.30
2017,05,23,15,56,22.30
2017,05,23,15,57,22.30
2017,05,23,15,58,22.30
2017,05,23,15,59,22.30
2017,05,23,16,00,22.40
2017,05,23,16,01,22.30
2017,05,23,16,02,22.30
2017,05,23,16,03,22.30
2017,05,23,16,04,22.30
2017,05,23,16,05,22.30
2017,05,23,16,06,22.30
2017,05,23,16,07,22.40
2017,05,23,16,08,22.40
2017,05,23,16,09,22.50
2017,05,23,16,10,22.50
2017,05,23,16,11,22.50
2017,05,23,16,12,22.50
2017,05,23,16,13,22.40
2017,05,23,16,14,22.30
2017,05,23,16,15,22.20
2017,05,23,16,16,22.10
2017,05,23,16,17,21.90
2017,05,23,16,18,21.70
2017,05,23,16,19,21.70
2017,05,23,16,20,21.70
2017,05,23,16,21,21.70
2017,05,23,16,22,21.70
2017,05,23,16,23,21.60
2017,05,23,16,24,21.50
2017,05,23,16,25,21.40
2017,05,23,16,26,21.30
2017,05,23,16,27,21.40
2017,05,23,16,28,21.50
2017,05,23,16,29,21.60
2017,05,23,16,30,21.60
2017,05,23,16,31,21.60
2017,05,23,16,32,21.60
2017,05,23,16,33,21.60
2017,05,23,16,34,21.60
2017,05,23,16,35,21.50
2017,05,23,16,36,21.40
2017,05,23,16,37,21.30
2017,05,23,16,38,21.10
2017,05,23,16,39,20.90
2017,05,23,16,40,20.90
2017,05,23,16,41,20.80
2017,05,23,16,42,20.70
2017,05,23,16,43,20.60
2017,05,23,16,44,20.60
2017,05,23,16,45,20.60
2017,05,23,16,46,20.60
2017,05,23,16,47,20.50
2017,05,23,16,48,20.60
2017,05,23,16,49,20.60
2017,05,23,16,50,20.60
2017,05,23,16,51,20.70
2017,05,23,16,52,20.80
2017,05,23,16,53,20.80
2017,05,23,16,54,20.90
2017,05,23,16,55,20.90
2017,05,23,16,56,21.00
2017,05,23,16,57,21.10
2017,05,23,16,58,21.20
2017,05,23,16,59,21.30
2017,05,23,17,00,21.40
2017,05,23,17,01,21.40
2017,05,23,17,02,21.40
2017,05,23,17,03,21.40
2017,05,23,17,04,21.30
2017,05,23,17,05,21.30
2017,05,23,17,06,21.30
2017,05,23,17,07,21.20
2017,05,23,17,08,21.30
2017,05,23,17,09,21.30
2017,05,23,17,10,21.20
2017,05,23,17,11,21.20
2017,05,23,17,12,21.20
2017,05,23,17,13,21.10
2017,05,23,17,14,21.00
2017,05,23,17,15,20.80
2017,05,23,17,16,20.80
2017,05,23,17,17,20.70
2017,05,23,17,18,20.60
2017,05,23,17,19,20.60